Flag for U.S.A. Weather past 2 weeks in Eau Claire, Wisconsin, U.S.A.

Now
24 °F

Passing clouds.


Feels Like: 16 °F
Forecast: 16 / 24 °F
Wind: 7 mph from Northeast

Location: Eau Claire County Airport

Current Time: Jan 25, 2015 at 2:57:44 PM

Latest Report: Jan 25, 2015 at 1:56 PM


Visibility: 10 mi

Pressure: 30.06 "Hg

Humidity: 57%

Dew point: 11 °F

Location of Eau ClaireLocation

Historic Weather in Eau Claire — Graph

°F

Eau Claire temperature yesterday

Maximum temperature yesterday: 38 °F (at 2:56 PM)
Minimum temperature yesterday: 28 °F (at 2:56 AM)
Average temperature yesterday: 33 °F

Past Weeks' High & Low Weather Summary

 TemperatureHumidityPressure
High38 °F (Jan 17, 1:56 PM)93% (Jan 19, 10:56 PM)30.87 "Hg (Jan 19, 10:56 PM)
Low-21 °F (Jan 13, 7:56 AM)47% (Jan 11, 1:56 PM)29.48 "Hg (Jan 17, 1:56 PM)
Average22 °F76%30.10 "Hg
* Reported Jan 10 1:56 PM — Jan 25 1:56 PM, Eau Claire, Weather by CustomWeather, © 2014

Note: Actual official high and low records may vary slightly from our data, if they occured in-between our weather recording intervals... More about our weather records

Advertising

Eau Claire weather history for previous 24 hours

 ConditionsComfort  
Time TempWeatherWind HumidityBarometerVisibility
1:56 PM
Jan 25
24 °FPassing clouds.7 mph57%30.06 "Hg10 mi
12:56 PM22 °FPartly sunny.12 mph62%30.05 "Hg10 mi
11:56 AM21 °FPartly sunny.9 mph65%30.06 "Hg10 mi
10:56 AM21 °FSunny.12 mph62%30.06 "Hg10 mi
9:56 AM19 °FSunny.13 mph65%30.03 "Hg10 mi
8:56 AM19 °FOvercast.13 mph68%30.00 "Hg10 mi
7:56 AM19 °FOvercast.14 mph68%29.97 "Hg10 mi
6:56 AM21 °FMostly cloudy.10 mph68%29.93 "Hg10 mi
5:56 AM24 °FOvercast.13 mph71%29.89 "Hg10 mi
4:56 AM26 °FOvercast.12 mph71%29.85 "Hg10 mi
3:56 AM27 °FOvercast.10 mph75%29.83 "Hg10 mi
2:56 AM28 °FOvercast.17 mph75%29.80 "Hg10 mi
1:56 AM30 °FOvercast.13 mph72%29.77 "Hg10 mi
12:56 AM33 °FOvercast.14 mph75%29.74 "Hg10 mi
11:56 PM
Jan 24
35 °FMostly cloudy.13 mph78%29.70 "Hg10 mi
10:56 PM33 °FMostly cloudy.7 mph82%29.68 "Hg10 mi
9:56 PM33 °FOvercast.5 mph82%29.67 "Hg9 mi
8:56 PM33 °FOvercast.5 mph82%29.66 "Hg9 mi
7:56 PM32 °FOvercast.No wind85%29.66 "Hg10 mi
6:56 PM31 °FOvercast.3 mph85%29.65 "Hg10 mi
5:56 PM32 °FPassing clouds.5 mph82%29.63 "Hg10 mi
4:56 PM36 °FPartly sunny.No wind75%29.62 "Hg10 mi
3:56 PM37 °FOvercast.6 mph73%29.61 "Hg10 mi
2:56 PM38 °FOvercast.7 mph70%29.62 "Hg10 mi
Weather by CustomWeather, © 2014

See weather overviewHow to use our weather pages